Time,TemperatureF,DewpointF,PressureIn,WindDirection,WindDirectionDegrees,WindSpeedMPH,WindSpeedGustMPH,Humidity,HourlyPrecipIn,Conditions,Clouds,dailyrainin,SoftwareType,DateUTC
2013-02-05 00:00:00,27.5,23.9,29.97,ESE,114,0.0,3.0,86,0.00,,---,0.00,VWS V13.01,2013-02-05 05:00:00,
2013-02-05 00:05:00,27.5,23.9,29.98,SE,124,0.0,1.0,86,0.00,,---,0.00,VWS V13.01,2013-02-05 05:05:00,
2013-02-05 00:10:00,27.7,24.1,29.97,SE,125,0.0,2.0,86,0.00,,---,0.00,VWS V13.01,2013-02-05 05:10:00,
2013-02-05 00:15:00,27.8,24.2,29.97,SE,125,0.0,2.0,86,0.00,,---,0.00,VWS V13.01,2013-02-05 05:15:00,
2013-02-05 00:21:00,27.9,24.3,29.97,SE,125,0.0,2.0,86,0.00,,---,0.00,VWS V13.01,2013-02-05 05:21:00,
2013-02-05 00:25:00,27.9,24.3,29.97,SE,126,0.0,2.0,86,0.00,,---,0.00,VWS V13.01,2013-02-05 05:25:00,
2013-02-05 00:31:00,27.9,24.3,29.97,SE,126,0.0,0.0,86,0.00,,---,0.00,VWS V13.01,2013-02-05 05:31:00,
2013-02-05 00:36:00,27.9,24.3,29.96,SE,125,0.0,1.0,86,0.00,,---,0.00,VWS V13.01,2013-02-05 05:36:00,
2013-02-05 00:41:00,27.9,24.3,29.96,SE,126,0.0,1.0,86,0.00,,---,0.00,VWS V13.01,2013-02-05 05:41:00,
2013-02-05 00:46:00,27.9,24.5,29.96,SE,125,0.0,1.0,87,0.00,,---,0.00,VWS V13.01,2013-02-05 05:46:00,
2013-02-05 00:51:00,28.0,24.6,29.96,SE,126,0.0,1.0,87,0.00,,---,0.00,VWS V13.01,2013-02-05 05:51:00,
2013-02-05 00:56:00,28.1,24.7,29.96,SE,125,0.0,1.0,87,0.00,,---,0.00,VWS V13.01,2013-02-05 05:56:00,
2013-02-05 01:01:00,28.2,24.8,29.96,SE,125,0.0,0.0,87,0.00,,---,0.00,VWS V13.01,2013-02-05 06:01:00,
2013-02-05 01:06:00,28.4,25.0,29.95,SE,126,1.0,3.0,87,0.00,,---,0.00,VWS V13.01,2013-02-05 06:06:00,
2013-02-05 01:11:00,28.6,25.2,29.95,SE,127,0.0,3.0,87,0.00,,---,0.00,VWS V13.01,2013-02-05 06:11:00,
2013-02-05 01:16:00,28.8,25.4,29.95,NE,37,0.0,4.0,87,0.00,,---,0.00,VWS V13.01,2013-02-05 06:16:00,
2013-02-05 01:21:00,29.0,25.6,29.95,ENE,73,2.0,4.0,87,0.00,,---,0.00,VWS V13.01,2013-02-05 06:21:00,
2013-02-05 01:26:00,29.2,25.5,29.95,ESE,123,2.0,4.0,86,0.00,,---,0.00,VWS V13.01,2013-02-05 06:26:00,
2013-02-05 01:31:00,29.3,25.6,29.95,ESE,123,1.0,3.0,86,0.00,,---,0.00,VWS V13.01,2013-02-05 06:31:00,
2013-02-05 01:36:00,29.5,25.6,29.95,ESE,119,3.0,4.0,85,0.00,,---,0.00,VWS V13.01,2013-02-05 06:36:00,
2013-02-05 01:41:00,29.7,25.5,29.94,East,90,0.0,4.0,84,0.00,,---,0.00,VWS V13.01,2013-02-05 06:41:00,
2013-02-05 01:46:00,29.8,25.6,29.94,East,90,0.0,4.0,84,0.00,,---,0.00,VWS V13.01,2013-02-05 06:46:00,
2013-02-05 01:51:00,30.1,25.6,29.94,SE,142,2.0,5.0,83,0.00,,---,0.00,VWS V13.01,2013-02-05 06:51:00,
2013-02-05 01:56:00,30.3,25.5,29.94,ESE,111,1.0,5.0,82,0.00,,---,0.00,VWS V13.01,2013-02-05 06:56:00,
2013-02-05 02:01:00,30.5,25.4,29.93,East,91,2.0,4.0,81,0.00,,---,0.00,VWS V13.01,2013-02-05 07:01:00,
2013-02-05 02:07:00,30.6,25.5,29.93,East,99,0.0,4.0,81,0.00,,---,0.00,VWS V13.01,2013-02-05 07:07:00,
2013-02-05 02:12:00,30.7,25.6,29.94,East,99,0.0,4.0,81,0.00,,---,0.00,VWS V13.01,2013-02-05 07:12:00,
2013-02-05 02:17:00,30.8,25.7,29.94,East,100,2.0,4.0,81,0.00,,---,0.00,VWS V13.01,2013-02-05 07:17:00,
2013-02-05 02:22:00,30.9,25.8,29.93,NE,34,0.0,4.0,81,0.00,,---,0.00,VWS V13.01,2013-02-05 07:22:00,
2013-02-05 02:27:00,31.0,25.9,29.94,ENE,64,2.0,4.0,81,0.00,,---,0.00,VWS V13.01,2013-02-05 07:27:00,
2013-02-05 02:32:00,31.0,25.9,29.93,SSW,192,3.0,4.0,81,0.00,,---,0.00,VWS V13.01,2013-02-05 07:32:00,
2013-02-05 02:37:00,31.1,26.0,29.93,East,84,2.0,6.0,81,0.00,,---,0.00,VWS V13.01,2013-02-05 07:37:00,
2013-02-05 02:42:00,31.2,26.1,29.93,South,169,0.0,6.0,81,0.00,,---,0.00,VWS V13.01,2013-02-05 07:42:00,
2013-02-05 02:47:00,31.3,26.2,29.93,East,98,2.0,6.0,81,0.00,,---,0.00,VWS V13.01,2013-02-05 07:47:00,
2013-02-05 02:52:00,31.4,26.0,29.93,WNW,286,0.0,6.0,80,0.00,,---,0.00,VWS V13.01,2013-02-05 07:52:00,
2013-02-05 02:57:00,31.7,26.2,29.93,SSE,166,0.0,6.0,80,0.00,,---,0.00,VWS V13.01,2013-02-05 07:57:00,
2013-02-05 03:02:00,31.9,26.1,29.92,SSW,195,2.0,4.0,79,0.00,,---,0.00,VWS V13.01,2013-02-05 08:02:00,
2013-02-05 03:07:00,31.9,26.1,29.92,ESE,111,4.0,5.0,79,0.00,,---,0.00,VWS V13.01,2013-02-05 08:07:00,
2013-02-05 03:12:00,31.9,25.8,29.93,East,101,0.0,5.0,78,0.00,,---,0.00,VWS V13.01,2013-02-05 08:12:00,
2013-02-05 03:17:00,31.8,26.0,29.92,East,101,0.0,5.0,79,0.00,,---,0.00,VWS V13.01,2013-02-05 08:17:00,
2013-02-05 03:22:00,31.7,25.9,29.92,East,101,0.0,5.0,79,0.00,,---,0.00,VWS V13.01,2013-02-05 08:22:00,
2013-02-05 03:27:00,31.6,26.1,29.92,East,101,0.0,5.0,80,0.00,,---,0.00,VWS V13.01,2013-02-05 08:27:00,
2013-02-05 03:32:00,31.5,26.0,29.92,East,101,1.0,2.0,80,0.00,,---,0.00,VWS V13.01,2013-02-05 08:32:00,
2013-02-05 03:37:00,31.6,26.1,29.92,East,101,1.0,4.0,80,0.00,,---,0.00,VWS V13.01,2013-02-05 08:37:00,
2013-02-05 03:42:00,31.5,26.0,29.92,East,101,0.0,4.0,80,0.00,,---,0.00,VWS V13.01,2013-02-05 08:42:00,
2013-02-05 03:47:00,31.3,25.9,29.92,East,101,0.0,4.0,80,0.00,,---,0.00,VWS V13.01,2013-02-05 08:47:00,
2013-02-05 03:52:00,31.2,26.1,29.92,ESE,107,2.0,4.0,81,0.00,,---,0.00,VWS V13.01,2013-02-05 08:52:00,
2013-02-05 03:57:00,31.0,25.9,29.92,ESE,110,3.0,4.0,81,0.00,,---,0.00,VWS V13.01,2013-02-05 08:57:00,
2013-02-05 04:02:00,31.0,25.9,29.92,ESE,103,2.0,2.0,81,0.00,,---,0.00,VWS V13.01,2013-02-05 09:02:00,
2013-02-05 04:07:00,30.8,26.0,29.92,ESE,104,0.0,2.0,82,0.00,,---,0.00,VWS V13.01,2013-02-05 09:07:00,
2013-02-05 04:12:00,30.6,25.8,29.91,ESE,111,3.0,3.0,82,0.00,,---,0.00,VWS V13.01,2013-02-05 09:12:00,
2013-02-05 04:17:00,30.6,25.8,29.91,ESE,110,0.0,3.0,82,0.00,,---,0.00,VWS V13.01,2013-02-05 09:17:00,
2013-02-05 04:22:00,30.5,26.0,29.92,ESE,113,0.0,3.0,83,0.00,,---,0.00,VWS V13.01,2013-02-05 09:22:00,
2013-02-05 04:27:00,30.4,25.9,29.93,SE,127,0.0,3.0,83,0.00,,---,0.00,VWS V13.01,2013-02-05 09:27:00,
2013-02-05 04:32:00,30.2,25.7,29.92,SE,126,0.0,0.0,83,0.00,,---,0.00,VWS V13.01,2013-02-05 09:32:00,
2013-02-05 04:37:00,30.2,26.0,29.92,SE,126,0.0,0.0,84,0.00,,---,0.00,VWS V13.01,2013-02-05 09:37:00,
2013-02-05 04:42:00,30.3,26.1,29.92,SE,126,0.0,0.0,84,0.00,,---,0.00,VWS V13.01,2013-02-05 09:42:00,
2013-02-05 04:47:00,30.3,26.1,29.92,SE,125,0.0,0.0,84,0.00,,---,0.00,VWS V13.01,2013-02-05 09:47:00,
2013-02-05 04:52:00,30.3,26.3,29.92,SE,137,0.0,2.0,85,0.00,,---,0.00,VWS V13.01,2013-02-05 09:52:00,
2013-02-05 04:57:00,30.4,26.4,29.92,SE,137,0.0,3.0,85,0.00,,---,0.00,VWS V13.01,2013-02-05 09:57:00,
2013-02-05 05:02:00,30.6,26.6,29.92,SE,137,0.0,0.0,85,0.00,,---,0.00,VWS V13.01,2013-02-05 10:02:00,
2013-02-05 05:07:00,30.7,26.7,29.92,SE,138,0.0,0.0,85,0.00,,---,0.00,VWS V13.01,2013-02-05 10:07:00,
2013-02-05 05:12:00,30.7,26.7,29.92,SE,137,0.0,1.0,85,0.00,,---,0.00,VWS V13.01,2013-02-05 10:12:00,
2013-02-05 05:17:00,30.8,26.8,29.92,SE,127,0.0,1.0,85,0.00,,---,0.00,VWS V13.01,2013-02-05 10:17:00,
2013-02-05 05:22:00,30.9,26.9,29.93,SE,127,0.0,1.0,85,0.00,,---,0.00,VWS V13.01,2013-02-05 10:22:00,
2013-02-05 05:27:00,31.0,27.0,29.92,ENE,76,0.0,3.0,85,0.00,,---,0.00,VWS V13.01,2013-02-05 10:27:00,
2013-02-05 05:32:00,31.4,27.4,29.92,ENE,77,0.0,0.0,85,0.00,,---,0.00,VWS V13.01,2013-02-05 10:32:00,
2013-02-05 05:37:00,31.5,27.2,29.92,ENE,76,0.0,1.0,84,0.00,,---,0.00,VWS V13.01,2013-02-05 10:37:00,
2013-02-05 05:42:00,31.6,27.3,29.92,ENE,65,0.0,3.0,84,0.00,,---,0.00,VWS V13.01,2013-02-05 10:42:00,
2013-02-05 05:47:00,31.7,27.4,29.92,East,92,0.0,3.0,84,0.00,,---,0.00,VWS V13.01,2013-02-05 10:47:00,
2013-02-05 05:52:00,31.8,27.5,29.92,East,95,0.0,3.0,84,0.00,,---,0.00,VWS V13.01,2013-02-05 10:52:00,
2013-02-05 05:57:00,31.9,27.3,29.92,South,179,0.0,3.0,83,0.00,,---,0.00,VWS V13.01,2013-02-05 10:57:00,
2013-02-05 06:02:00,31.9,27.3,29.93,ESE,107,0.0,2.0,83,0.00,,---,0.00,VWS V13.01,2013-02-05 11:02:00,
2013-02-05 06:07:00,32.1,27.5,29.93,ESE,110,0.0,2.0,83,0.00,,---,0.00,VWS V13.01,2013-02-05 11:07:00,
2013-02-05 06:12:00,32.4,27.8,29.94,ESE,110,0.0,2.0,83,0.00,,---,0.00,VWS V13.01,2013-02-05 11:12:00,
2013-02-05 06:17:00,33.1,28.2,29.93,North,355,0.0,4.0,82,0.00,,---,0.00,VWS V13.01,2013-02-05 11:17:00,
2013-02-05 06:22:00,34.7,28.9,29.93,NW,318,0.0,4.0,79,0.00,,---,0.00,VWS V13.01,2013-02-05 11:22:00,
2013-02-05 06:27:00,36.9,29.4,29.93,West,276,1.0,4.0,74,0.00,,---,0.00,VWS V13.01,2013-02-05 11:27:00,
2013-02-05 06:32:00,38.7,29.4,29.93,WNW,290,0.0,4.0,69,0.00,,---,0.00,VWS V13.01,2013-02-05 11:32:00,
2013-02-05 06:37:00,39.8,29.8,29.94,West,272,0.0,5.0,67,0.00,,---,0.00,VWS V13.01,2013-02-05 11:37:00,
2013-02-05 06:42:00,40.4,29.6,29.93,NW,306,1.0,5.0,65,0.00,,---,0.00,VWS V13.01,2013-02-05 11:42:00,
2013-02-05 06:47:00,40.9,29.7,29.93,WNW,296,1.0,5.0,64,0.00,,---,0.00,VWS V13.01,2013-02-05 11:47:00,
2013-02-05 06:53:00,41.1,29.9,29.93,West,263,0.0,5.0,64,0.00,,---,0.00,VWS V13.01,2013-02-05 11:53:00,
2013-02-05 06:57:00,41.1,29.9,29.93,West,271,0.0,6.0,64,0.00,,---,0.00,VWS V13.01,2013-02-05 11:57:00,
2013-02-05 07:03:00,41.2,30.3,29.94,NW,306,0.0,4.0,65,0.00,,---,0.00,VWS V13.01,2013-02-05 12:03:00,
2013-02-05 07:08:00,41.2,30.3,29.93,NW,308,5.0,5.0,65,0.00,,---,0.00,VWS V13.01,2013-02-05 12:08:00,
2013-02-05 07:13:00,41.3,30.4,29.93,NW,310,1.0,5.0,65,0.00,,---,0.00,VWS V13.01,2013-02-05 12:13:00,
2013-02-05 07:18:00,41.4,30.9,29.94,WNW,295,0.0,5.0,66,0.00,,---,0.00,VWS V13.01,2013-02-05 12:18:00,
2013-02-05 07:23:00,41.4,31.3,29.94,West,273,0.0,5.0,67,0.00,,---,0.00,VWS V13.01,2013-02-05 12:23:00,
2013-02-05 07:28:00,41.4,31.3,29.95,WNW,285,0.0,5.0,67,0.00,,---,0.00,VWS V13.01,2013-02-05 12:28:00,
2013-02-05 07:33:00,41.4,31.6,29.95,WNW,302,0.0,3.0,68,0.00,,---,0.00,VWS V13.01,2013-02-05 12:33:00,
2013-02-05 07:38:00,41.3,31.5,29.94,West,278,0.0,3.0,68,0.00,,---,0.00,VWS V13.01,2013-02-05 12:38:00,
2013-02-05 07:43:00,41.3,31.9,29.95,West,280,0.0,3.0,69,0.00,,---,0.00,VWS V13.01,2013-02-05 12:43:00,
2013-02-05 07:48:00,41.4,32.0,29.95,West,281,0.0,5.0,69,0.00,,---,0.00,VWS V13.01,2013-02-05 12:48:00,
2013-02-05 07:53:00,41.5,32.1,29.95,WNW,288,1.0,6.0,69,0.00,,---,0.00,VWS V13.01,2013-02-05 12:53:00,
2013-02-05 07:58:00,41.6,32.6,29.96,NW,310,3.0,6.0,70,0.00,,---,0.00,VWS V13.01,2013-02-05 12:58:00,
2013-02-05 08:03:00,41.6,32.6,29.96,NW,312,2.0,3.0,70,0.00,,---,0.00,VWS V13.01,2013-02-05 13:03:00,
2013-02-05 08:08:00,41.8,32.8,29.96,WSW,258,3.0,7.0,70,0.00,,---,0.00,VWS V13.01,2013-02-05 13:08:00,
2013-02-05 08:13:00,41.8,32.8,29.96,WSW,244,5.0,9.0,70,0.00,,---,0.00,VWS V13.01,2013-02-05 13:13:00,
2013-02-05 08:18:00,41.8,33.1,29.95,WNW,302,3.0,9.0,71,0.00,,---,0.00,VWS V13.01,2013-02-05 13:18:00,
2013-02-05 08:23:00,41.8,33.1,29.96,WNW,285,2.0,9.0,71,0.00,,---,0.00,VWS V13.01,2013-02-05 13:23:00,
2013-02-05 08:28:00,41.8,33.1,29.96,SSW,205,1.0,9.0,71,0.00,,---,0.00,VWS V13.01,2013-02-05 13:28:00,
2013-02-05 08:33:00,41.8,33.1,29.96,West,271,4.0,5.0,71,0.00,,---,0.00,VWS V13.01,2013-02-05 13:33:00,
2013-02-05 08:38:00,41.8,33.1,29.95,West,275,5.0,9.0,71,0.00,,---,0.00,VWS V13.01,2013-02-05 13:38:00,
2013-02-05 08:43:00,41.9,33.2,29.95,West,275,4.0,9.0,71,0.00,,---,0.00,VWS V13.01,2013-02-05 13:43:00,
2013-02-05 08:48:00,41.9,33.2,29.96,WSW,244,4.0,9.0,71,0.00,,---,0.00,VWS V13.01,2013-02-05 13:48:00,
2013-02-05 08:53:00,41.8,33.1,29.96,WSW,249,3.0,10.0,71,0.00,,---,0.00,VWS V13.01,2013-02-05 13:53:00,
2013-02-05 08:58:00,41.7,33.0,29.96,WSW,238,3.0,10.0,71,0.00,,---,0.00,VWS V13.01,2013-02-05 13:58:00,
2013-02-05 09:03:00,41.7,33.3,29.96,SW,229,2.0,6.0,72,0.00,,---,0.00,VWS V13.01,2013-02-05 14:03:00,
2013-02-05 09:08:00,41.6,33.3,29.96,WSW,250,5.0,8.0,72,0.00,,---,0.00,VWS V13.01,2013-02-05 14:08:00,
2013-02-05 09:13:00,41.7,33.0,29.95,SW,221,4.0,8.0,71,0.00,,---,0.00,VWS V13.01,2013-02-05 14:13:00,
2013-02-05 09:18:00,41.8,33.1,29.96,West,271,3.0,9.0,71,0.00,,---,0.00,VWS V13.01,2013-02-05 14:18:00,
2013-02-05 09:23:00,41.8,33.1,29.96,West,269,4.0,9.0,71,0.00,,---,0.00,VWS V13.01,2013-02-05 14:23:00,
2013-02-05 09:28:00,41.9,33.2,29.96,West,260,2.0,9.0,71,0.00,,---,0.00,VWS V13.01,2013-02-05 14:28:00,
2013-02-05 09:33:00,41.9,33.2,29.96,WSW,246,3.0,5.0,71,0.00,,---,0.00,VWS V13.01,2013-02-05 14:33:00,
2013-02-05 09:38:00,42.0,33.3,29.96,SW,236,2.0,5.0,71,0.00,,---,0.00,VWS V13.01,2013-02-05 14:38:00,
2013-02-05 09:43:00,42.1,33.4,29.96,West,261,4.0,11.0,71,0.00,,---,0.00,VWS V13.01,2013-02-05 14:43:00,
2013-02-05 09:48:00,42.2,33.5,29.96,West,261,7.0,12.0,71,0.00,,---,0.00,VWS V13.01,2013-02-05 14:48:00,
2013-02-05 09:53:00,42.3,33.2,29.96,West,277,2.0,12.0,70,0.00,,---,0.00,VWS V13.01,2013-02-05 14:53:00,
2013-02-05 09:58:00,42.6,33.5,29.96,SW,215,6.0,12.0,70,0.00,,---,0.00,VWS V13.01,2013-02-05 14:58:00,
2013-02-05 10:03:00,42.9,33.4,29.96,WSW,240,5.0,12.0,69,0.00,,---,0.00,VWS V13.01,2013-02-05 15:03:00,
2013-02-05 10:08:00,43.2,33.7,29.96,West,276,6.0,12.0,69,0.00,,---,0.00,VWS V13.01,2013-02-05 15:08:00,
2013-02-05 10:13:00,43.5,34.0,29.97,SW,230,1.0,12.0,69,0.00,,---,0.00,VWS V13.01,2013-02-05 15:13:00,
2013-02-05 10:18:00,43.7,34.2,29.96,SW,234,12.0,12.0,69,0.00,,---,0.00,VWS V13.01,2013-02-05 15:18:00,
2013-02-05 10:24:00,43.8,34.3,29.96,West,273,9.0,16.0,69,0.00,,---,0.00,VWS V13.01,2013-02-05 15:24:00,
2013-02-05 11:30:00,43.8,34.3,29.96,WSW,248,6.0,16.0,69,0.00,,---,0.00,VWS V13.01,2013-02-05 16:30:00,
2013-02-05 12:00:00,44.5,35.0,29.97,WSW,248,9.0,20.0,69,0.00,,---,0.00,VWS V13.01,2013-02-05 17:00:00,
2013-02-05 12:30:00,46.3,36.0,29.96,WSW,248,8.0,19.0,67,0.00,,---,0.00,VWS V13.01,2013-02-05 17:30:00,
2013-02-05 13:00:00,47.6,36.0,29.93,WSW,248,10.0,24.0,64,0.00,,---,0.00,VWS V13.01,2013-02-05 18:00:00,
2013-02-05 13:30:00,47.2,36.0,29.92,West,270,11.0,20.0,65,0.00,,---,0.00,VWS V13.01,2013-02-05 18:30:00,
2013-02-05 14:00:00,47.9,35.9,29.90,West,270,10.0,19.0,63,0.00,,---,0.00,VWS V13.01,2013-02-05 19:00:00,
2013-02-05 14:30:00,48.5,36.1,29.89,WSW,248,11.0,20.0,62,0.00,,---,0.00,VWS V13.01,2013-02-05 19:30:00,
2013-02-05 15:00:00,48.7,36.3,29.88,WSW,248,9.0,17.0,62,0.00,,---,0.00,VWS V13.01,2013-02-05 20:00:00,
2013-02-05 15:30:00,49.3,36.8,29.88,WSW,248,8.0,20.0,62,0.00,,---,0.00,VWS V13.01,2013-02-05 20:30:00,
2013-02-05 16:00:00,49.8,36.1,29.87,WSW,248,9.0,18.0,59,0.00,,---,0.00,VWS V13.01,2013-02-05 21:00:00,
2013-02-05 16:30:00,49.9,35.7,29.88,WSW,248,7.0,18.0,58,0.00,,---,0.00,VWS V13.01,2013-02-05 21:30:00,
2013-02-05 17:07:00,49.5,35.3,29.87,WSW,248,6.0,15.0,58,0.00,,---,0.00,VWS V13.01,2013-02-05 22:07:00,
2013-02-05 17:12:00,49.1,35.0,29.88,SW,230,4.0,13.0,58,0.00,,---,0.00,VWS V13.01,2013-02-05 22:12:00,
2013-02-05 17:17:00,49.0,34.9,29.87,SW,236,5.0,13.0,58,0.00,,---,0.00,VWS V13.01,2013-02-05 22:17:00,
2013-02-05 17:22:00,48.8,35.1,29.87,WSW,248,5.0,14.0,59,0.00,,---,0.00,VWS V13.01,2013-02-05 22:22:00,
2013-02-05 17:27:00,48.7,35.0,29.87,West,268,6.0,14.0,59,0.00,,---,0.00,VWS V13.01,2013-02-05 22:27:00,
2013-02-05 17:32:00,48.6,34.9,29.87,SW,218,4.0,5.0,59,0.00,,---,0.00,VWS V13.01,2013-02-05 22:32:00,
2013-02-05 17:37:00,48.5,34.8,29.88,WSW,241,4.0,11.0,59,0.00,,---,0.00,VWS V13.01,2013-02-05 22:37:00,
2013-02-05 17:42:00,48.4,35.2,29.88,SW,215,2.0,11.0,60,0.00,,---,0.00,VWS V13.01,2013-02-05 22:42:00,
2013-02-05 17:47:00,48.2,35.0,29.88,SSW,211,3.0,11.0,60,0.00,,---,0.00,VWS V13.01,2013-02-05 22:47:00,
2013-02-05 17:52:00,48.1,34.9,29.88,SW,229,3.0,14.0,60,0.00,,---,0.00,VWS V13.01,2013-02-05 22:52:00,
2013-02-05 17:57:00,47.9,35.1,29.88,SSW,210,9.0,14.0,61,0.00,,---,0.00,VWS V13.01,2013-02-05 22:57:00,
2013-02-05 18:02:00,47.8,35.0,29.88,WSW,238,3.0,10.0,61,0.00,,---,0.00,VWS V13.01,2013-02-05 23:02:00,
2013-02-05 18:07:00,47.7,34.9,29.88,SW,227,3.0,10.0,61,0.00,,---,0.00,VWS V13.01,2013-02-05 23:07:00,
2013-02-05 18:12:00,47.5,35.1,29.89,SW,214,6.0,10.0,62,0.00,,---,0.00,VWS V13.01,2013-02-05 23:12:00,
2013-02-05 18:17:00,47.3,35.0,29.89,West,275,4.0,10.0,62,0.00,,---,0.00,VWS V13.01,2013-02-05 23:17:00,
2013-02-05 18:22:00,47.1,35.2,29.89,SSW,198,6.0,10.0,63,0.00,,---,0.00,VWS V13.01,2013-02-05 23:22:00,
2013-02-05 18:27:00,46.9,35.0,29.89,WSW,238,3.0,10.0,63,0.00,,---,0.00,VWS V13.01,2013-02-05 23:27:00,
2013-02-05 18:32:00,46.8,35.3,29.90,SW,232,8.0,12.0,64,0.00,,---,0.00,VWS V13.01,2013-02-05 23:32:00,
2013-02-05 18:37:00,46.8,35.3,29.89,SW,221,4.0,12.0,64,0.00,,---,0.00,VWS V13.01,2013-02-05 23:37:00,
2013-02-05 18:42:00,46.7,35.2,29.89,West,261,3.0,12.0,64,0.00,,---,0.00,VWS V13.01,2013-02-05 23:42:00,
2013-02-05 18:47:00,46.5,35.0,29.90,WSW,250,7.0,15.0,64,0.00,,---,0.00,VWS V13.01,2013-02-05 23:47:00,
2013-02-05 18:52:00,46.4,34.9,29.90,SW,235,4.0,15.0,64,0.00,,---,0.00,VWS V13.01,2013-02-05 23:52:00,
2013-02-05 18:57:00,46.1,35.0,29.90,NW,304,1.0,15.0,65,0.00,,---,0.00,VWS V13.01,2013-02-05 23:57:00,
2013-02-05 19:02:00,46.0,34.9,29.90,West,260,2.0,3.0,65,0.00,,---,0.00,VWS V13.01,2013-02-06 00:02:00,
2013-02-05 19:07:00,45.8,34.7,29.90,WSW,244,0.0,3.0,65,0.00,,---,0.00,VWS V13.01,2013-02-06 00:07:00,
2013-02-05 19:12:00,45.6,34.9,29.90,NW,323,2.0,4.0,66,0.00,,---,0.00,VWS V13.01,2013-02-06 00:12:00,
2013-02-05 19:17:00,45.4,34.7,29.90,NW,325,0.0,4.0,66,0.00,,---,0.00,VWS V13.01,2013-02-06 00:17:00,
2013-02-05 19:22:00,45.1,34.4,29.90,NW,325,2.0,4.0,66,0.00,,---,0.00,VWS V13.01,2013-02-06 00:22:00,
2013-02-05 19:27:00,45.0,34.7,29.90,West,275,2.0,4.0,67,0.00,,---,0.00,VWS V13.01,2013-02-06 00:27:00,
2013-02-05 19:32:00,44.9,34.6,29.90,WNW,296,1.0,3.0,67,0.00,,---,0.00,VWS V13.01,2013-02-06 00:32:00,
2013-02-05 19:37:00,44.7,34.8,29.90,West,277,0.0,4.0,68,0.00,,---,0.00,VWS V13.01,2013-02-06 00:37:00,
2013-02-05 19:42:00,44.5,34.6,29.90,West,275,2.0,4.0,68,0.00,,---,0.00,VWS V13.01,2013-02-06 00:42:00,
2013-02-05 19:47:00,44.3,34.4,29.91,WSW,247,1.0,4.0,68,0.00,,---,0.00,VWS V13.01,2013-02-06 00:47:00,
2013-02-05 19:52:00,44.1,34.6,29.91,WSW,246,0.0,4.0,69,0.00,,---,0.00,VWS V13.01,2013-02-06 00:52:00,
2013-02-05 19:57:00,44.0,34.5,29.90,WNW,284,1.0,4.0,69,0.00,,---,0.00,VWS V13.01,2013-02-06 00:57:00,
2013-02-05 20:02:00,43.9,34.4,29.90,WNW,290,0.0,1.0,69,0.00,,---,0.00,VWS V13.01,2013-02-06 01:02:00,
2013-02-05 20:07:00,43.7,34.6,29.91,WNW,288,0.0,3.0,70,0.00,,---,0.00,VWS V13.01,2013-02-06 01:07:00,
2013-02-05 20:12:00,43.6,34.5,29.90,WNW,287,0.0,3.0,70,0.00,,---,0.00,VWS V13.01,2013-02-06 01:12:00,
2013-02-05 20:17:00,43.5,34.4,29.90,SW,230,0.0,4.0,70,0.00,,---,0.00,VWS V13.01,2013-02-06 01:17:00,
2013-02-05 20:22:00,43.4,34.6,29.90,WNW,282,1.0,5.0,71,0.00,,---,0.00,VWS V13.01,2013-02-06 01:22:00,
2013-02-05 20:27:00,43.4,34.6,29.90,West,267,0.0,5.0,71,0.00,,---,0.00,VWS V13.01,2013-02-06 01:27:00,
2013-02-05 20:32:00,43.3,34.5,29.90,West,268,0.0,2.0,71,0.00,,---,0.00,VWS V13.01,2013-02-06 01:32:00,
2013-02-05 20:37:00,43.2,34.5,29.90,NW,306,1.0,4.0,71,0.00,,---,0.00,VWS V13.01,2013-02-06 01:37:00,
2013-02-05 20:42:00,43.1,34.3,29.90,NW,306,0.0,4.0,71,0.00,,---,0.00,VWS V13.01,2013-02-06 01:42:00,
2013-02-05 20:47:00,43.0,34.6,29.90,WNW,302,1.0,4.0,72,0.00,,---,0.00,VWS V13.01,2013-02-06 01:47:00,
2013-02-05 20:53:00,42.9,34.5,29.90,WNW,302,0.0,4.0,72,0.00,,---,0.00,VWS V13.01,2013-02-06 01:53:00,
2013-02-05 20:58:00,42.8,34.4,29.90,WNW,298,0.0,4.0,72,0.00,,---,0.00,VWS V13.01,2013-02-06 01:58:00,
2013-02-05 21:03:00,42.6,34.6,29.90,WNW,299,0.0,2.0,73,0.00,,---,0.00,VWS V13.01,2013-02-06 02:03:00,
2013-02-05 21:08:00,42.5,34.5,29.90,WNW,299,0.0,2.0,73,0.00,,---,0.00,VWS V13.01,2013-02-06 02:08:00,
2013-02-05 21:13:00,42.3,34.3,29.90,West,262,0.0,2.0,73,0.00,,---,0.00,VWS V13.01,2013-02-06 02:13:00,
2013-02-05 21:18:00,42.1,34.1,29.90,WSW,256,0.0,2.0,73,0.00,,---,0.00,VWS V13.01,2013-02-06 02:18:00,
2013-02-05 21:23:00,41.8,34.1,29.90,WSW,256,0.0,2.0,74,0.00,,---,0.00,VWS V13.01,2013-02-06 02:23:00,
2013-02-05 21:28:00,41.6,33.9,29.90,South,177,0.0,3.0,74,0.00,,---,0.00,VWS V13.01,2013-02-06 02:28:00,
2013-02-05 21:33:00,41.5,34.2,29.91,South,176,0.0,0.0,75,0.00,,---,0.00,VWS V13.01,2013-02-06 02:33:00,
2013-02-05 21:38:00,41.2,33.9,29.91,South,177,0.0,0.0,75,0.00,,---,0.00,VWS V13.01,2013-02-06 02:38:00,
2013-02-05 21:43:00,41.1,33.8,29.91,WSW,254,0.0,4.0,75,0.00,,---,0.00,VWS V13.01,2013-02-06 02:43:00,
2013-02-05 21:48:00,40.9,33.9,29.91,West,268,0.0,4.0,76,0.00,,---,0.00,VWS V13.01,2013-02-06 02:48:00,
2013-02-05 21:53:00,40.8,34.2,29.91,SW,222,0.0,5.0,77,0.00,,---,0.00,VWS V13.01,2013-02-06 02:53:00,
2013-02-05 21:58:00,41.4,34.7,29.91,West,264,0.0,13.0,77,0.00,,---,0.00,VWS V13.01,2013-02-06 02:58:00,
2013-02-05 22:03:00,42.0,35.0,29.91,West,268,3.0,7.0,76,0.00,,---,0.00,VWS V13.01,2013-02-06 03:03:00,
2013-02-05 22:08:00,42.3,35.0,29.91,WNW,296,3.0,7.0,75,0.00,,---,0.00,VWS V13.01,2013-02-06 03:08:00,
2013-02-05 22:13:00,42.4,35.0,29.91,West,260,1.0,7.0,75,0.00,,---,0.00,VWS V13.01,2013-02-06 03:13:00,
2013-02-05 22:18:00,42.4,35.0,29.90,West,269,4.0,7.0,75,0.00,,---,0.00,VWS V13.01,2013-02-06 03:18:00,
2013-02-05 22:23:00,42.2,34.9,29.90,West,279,0.0,7.0,75,0.00,,---,0.00,VWS V13.01,2013-02-06 03:23:00,
2013-02-05 22:28:00,42.1,34.8,29.91,West,268,3.0,7.0,75,0.00,,---,0.00,VWS V13.01,2013-02-06 03:28:00,
2013-02-05 22:34:00,42.0,34.7,29.91,WNW,287,0.0,4.0,75,0.00,,---,0.00,VWS V13.01,2013-02-06 03:34:00,
2013-02-05 22:39:00,42.0,34.7,29.91,West,261,1.0,4.0,75,0.00,,---,0.00,VWS V13.01,2013-02-06 03:39:00,
2013-02-05 22:44:00,41.9,34.6,29.91,SSW,194,0.0,5.0,75,0.00,,---,0.00,VWS V13.01,2013-02-06 03:44:00,
2013-02-05 22:49:00,41.8,34.8,29.91,WSW,238,2.0,5.0,76,0.00,,---,0.00,VWS V13.01,2013-02-06 03:49:00,
2013-02-05 22:54:00,41.9,34.9,29.91,SW,229,6.0,8.0,76,0.00,,---,0.00,VWS V13.01,2013-02-06 03:54:00,
2013-02-05 22:59:00,42.1,34.8,29.91,West,277,0.0,8.0,75,0.00,,---,0.00,VWS V13.01,2013-02-06 03:59:00,
2013-02-05 23:04:00,41.9,34.6,29.91,WNW,292,4.0,5.0,75,0.00,,---,0.00,VWS V13.01,2013-02-06 04:04:00,
2013-02-05 23:09:00,41.8,34.5,29.91,SW,223,0.0,6.0,75,0.00,,---,0.00,VWS V13.01,2013-02-06 04:09:00,
2013-02-05 23:14:00,41.6,34.6,29.91,West,263,2.0,6.0,76,0.00,,---,0.00,VWS V13.01,2013-02-06 04:14:00,
2013-02-05 23:19:00,41.5,34.5,29.91,SSW,204,4.0,6.0,76,0.00,,---,0.00,VWS V13.01,2013-02-06 04:19:00,
2013-02-05 23:24:00,41.4,34.4,29.91,WSW,252,2.0,6.0,76,0.00,,---,0.00,VWS V13.01,2013-02-06 04:24:00,
2013-02-05 23:29:00,41.3,34.3,29.91,SW,225,1.0,6.0,76,0.00,,---,0.00,VWS V13.01,2013-02-06 04:29:00,
2013-02-05 23:34:00,41.2,34.2,29.91,SW,233,3.0,4.0,76,0.00,,---,0.00,VWS V13.01,2013-02-06 04:34:00,
2013-02-05 23:39:00,41.3,34.3,29.91,WSW,242,2.0,5.0,76,0.00,,---,0.00,VWS V13.01,2013-02-06 04:39:00,
2013-02-05 23:44:00,41.5,34.5,29.91,WSW,256,0.0,8.0,76,0.00,,---,0.00,VWS V13.01,2013-02-06 04:44:00,
2013-02-05 23:49:00,41.5,34.5,29.91,WSW,245,3.0,8.0,76,0.00,,---,0.00,VWS V13.01,2013-02-06 04:49:00,
2013-02-05 23:54:00,41.5,34.5,29.91,WSW,254,3.0,8.0,76,0.00,,---,0.00,VWS V13.01,2013-02-06 04:54:00,
2013-02-05 23:59:00,41.5,34.5,29.91,West,270,2.0,8.0,76,0.00,,---,0.00,VWS V13.01,2013-02-06 04:59:00,